COSMOS 1275 DEB, 14409

Orbit data source: Space-Track

COSMOS 1275 DEB, 14409 is space debris in LEO originally from a launch on Thu, 04 Jun 1981 UTC launched from the Plesetsk Missile And Space Complex (PKMTR). Debris objects in space refer to the collection of defunct objects orbiting the Earth. Examples of debris include non-operational satellites, rocket bodies, and fragments generated from explosions, collisions, or faulty payload assembly.

Loading next visibility...
Identifier
14409, 1981-053JE
Orbit
LEO
Country
Flag of CISCIS
Related business
Manufacturer
Unknown
Mission
Spacecraft
Bus & Motor
Unknown
Mass
Unknown
Launch date (UTC)
1981-06-04 (45 years ago)
Launch vehicle
Unknown
Launch site
Plesetsk Missile And Space Complex (PKMTR)
Object type
Payload
Rocket body
Debris
Shape & HBR
Unknown shape, 0.1 m
Radar Cross Section
Small (<0.1 m²)

Expand to show TLE details & history
Last TLE update: 20 hours ago

TLE from 20 hours ago
0 COSMOS 1275 DEB
1 14409U 81053JE  26119.19704508  .00000971  00000-0  10111-2 0  9991
2 14409  83.0302  11.2384 0119893 283.7727 204.4416 13.71495170290574
Epoch: 2026-04-29T04:43Z
TLE epoch observation values (Epoch: 2026-04-29T04:43:44.694Z)
Latitude
51.8969°
Longitude
-105.78161°
Altitude
1,083.258 km
Speed
7.275 km/s
True Right ascension
12h 09m 15s
True Declination
51° 44' 13"
Sunlit
Object was in daylight at epoch
Visualization orbit readout
Latitude
Unknown
Longitude
Unknown
Altitude
Unknown
Speed
Unknown
Apparent Right ascension
Unknown
Apparent Declination
Unknown
Sunlit
N/A
Visualization observer readout
Local Sidereal Time
07:45:09
Azimuth
Unknown
Elevation
Unknown
Doppler factor
Unknown
Orbital elements
Apogee altitude
1,079.713 km
Perigee altitude
903.003 km
Semi-major axis
7,369.495 km
Eccentricity
0.01199
Inclination
83.0302°
RAAN
11.2384°
Arg. of periapsis
283.7727°
True anomaly
203.8808°
Mean anomaly
204.4416°
Eccentric anomaly
204.16044°
Mean motion
3.43073 °/min
Orbital period
104.93 mins
BSTAR
0.0010111
Loading maneuver chart data...
Computing Atmospheric mass density...
Loading historical data...
Loading historical data...
Loading historical data...
Loading historical data...
Loading historical data...
Loading historical data...
Loading historical data...

Documentation

Showing up to 5 results
|